Regional Weather Roundup
Issued by NWS

Home | Current Version | Previous Version | Text Only | Print | Product List | Glossary Off
Versions: 1 2 3 4 5 6 7 8 9 10 11 12 13 14 15 16 17 18 19 20 21 22 23 24 25 26 27 28 29 30 31 32 33 34 35 36 37 38 39 40 41 42 43 44 45 46 47 48 49 50

000
ASUS43 KOAX 280010
RWRNE

WEATHER ROUNDUP FOR NEBRASKA
NATIONAL WEATHER SERVICE OMAHA NE
700 PM CDT WED AUG 27 2014

NOTES: SATELLITE DATA IS BEING USED TO AUGMENT CLOUD COVER ABOVE
       12000 FEET.
       "FAIR" INDICATES FEW OR NO CLOUDS BELOW 12,000 FEET WITH NO
       SIGNIFICANT WEATHER AND/OR OBSTRUCTIONS TO VISIBILITY.

  * THESE STATIONS DO NOT REPORT WEATHER SUCH AS RAIN...SNOW OR FOG.

NEZ001>004-019>022-054>056-280100-
NEBRASKA PANHANDLE

CITY           SKY/WX    TMP DP  RH WIND       PRES   REMARKS
SCOTTSBLUFF    MOSUNNY   68  61  78 W7        30.05F
6HR MIN TEMP:  60; 6HR MAX TEMP:  70; 6HR PCP:  0.64;

ALLIANCE       PTSUNNY   70  62  76 N13       30.03F
6HR MIN TEMP:  63; 6HR MAX TEMP:  77; 6HR PCP:  0.06;

CHADRON        CLOUDY    68  65  90 NE12      30.02F
6HR MIN TEMP:  65; 6HR MAX TEMP:  76; 6HR PCP:  0.87;

KIMBALL        CLOUDY    67  56  67 N7        30.08R
SIDNEY         PTSUNNY   72  56  57 N12       30.05F
6HR MIN TEMP:  69; 6HR MAX TEMP:  81;

$$

NEZ057>060-069>072-079>082-280100-
SOUTHWEST NEBRASKA

CITY           SKY/WX    TMP DP  RH WIND       PRES   REMARKS
NORTH PLATTE   LGT RAIN  69  66  90 SE16      30.02S
6HR MIN TEMP:  69; 6HR MAX TEMP:  74; 6HR PCP:  0.04;

IMPERIAL       PTSUNNY   79  64  60 E15G22    29.99S
6HR MIN TEMP:  74; 6HR MAX TEMP:  81; 6HR PCP: TRACE;

LEXINGTON      LGT RAIN  73  70  93 SE8       30.04S
MCCOOK         LGT RAIN  70  68  93 SE15G21   30.01F FOG
6HR MIN TEMP:  70; 6HR MAX TEMP:  80; 6HR PCP:  0.03;

OGALLALA       PTSUNNY   70  64  83 E10       30.00F
$$

NEZ005>010-023>029-035>040-094-280100-
NORTH CENTRAL NEBRASKA

CITY           SKY/WX    TMP DP  RH WIND       PRES   REMARKS
VALENTINE      CLOUDY    73  66  78 S13       30.03S
6HR MIN TEMP:  71; 6HR MAX TEMP:  79; 6HR PCP: TRACE;

AINSWORTH      CLOUDY    71  64  79 SE6       30.04S
BROKEN BOW     PTSUNNY   73  68  84 SE9       30.04S
6HR MIN TEMP:  71; 6HR MAX TEMP:  77; 6HR PCP: TRACE;

O`NEILL        CLOUDY    72  69  91 E7        30.05F
ORD            CLOUDY    75  69  81 SE7       30.02F
6HR MIN TEMP:  69; 6HR MAX TEMP:  76; 6HR PCP: TRACE;

THEDFORD       CLOUDY    73  67  83 SE10      30.04F
$$

NEZ041-046>049-061>064-073>077-083>087-280100-
SOUTH CENTRAL NEBRASKA

CITY           SKY/WX    TMP DP  RH WIND       PRES   REMARKS
GRAND ISLAND   CLOUDY    75  68  78 S9        30.04S
6HR MIN TEMP:  72; 6HR MAX TEMP:  78;

AURORA         CLOUDY    74  73  95 S6        30.04S
HASTINGS       CLOUDY    72  66  81 SE5       30.04F
6HR MIN TEMP:  72; 6HR MAX TEMP:  77; 6HR PCP:  0.02;

HEBRON         CLOUDY    77  69  75 E6        30.03S
HOLDREGE       CLOUDY    72  67  86 SE10      30.04F
KEARNEY *      CLOUDY    72  66  83 SE10      30.05S
YORK           CLOUDY    73 N/A N/A SE6       30.04S
$$

NEZ011>018-030>034-042>045-280100-
NORTHEAST NEBRASKA

CITY           SKY/WX    TMP DP  RH WIND       PRES   REMARKS
NORFOLK        CLOUDY    72  69  90 E6        30.04F
6HR MIN TEMP:  70; 6HR MAX TEMP:  73; 6HR PCP: TRACE;

ALBION         CLOUDY    73  68  84 E7        30.04F
BLAIR          CLOUDY    73  69  88 E9        30.06S
FREMONT        CLOUDY    74  69  84 E9        30.05F
TEKAMAH        CLOUDY    73  69  87 E8        30.06F
6HR MIN TEMP:  71; 6HR MAX TEMP:  74; 6HR PCP: TRACE;

WAYNE          LGT RAIN  70  69  96 E5        30.06F
$$

NEZ050>053-065>068-078-088>093-280100-
SOUTHEAST NEBRASKA

CITY           SKY/WX    TMP DP  RH WIND       PRES   REMARKS
LINCOLN        CLOUDY    75  70  84 S6        30.04S
6HR MIN TEMP:  71; 6HR MAX TEMP:  77; 6HR PCP: TRACE;

OMAHA EPPLEY   CLOUDY    73  68  84 E8        30.05F
6HR MIN TEMP:  70; 6HR MAX TEMP:  75; 6HR PCP:  0.34;

BEATRICE       CLOUDY    74  72  93 SE5       30.03F
FALLS CITY     CLOUDY    78  73  84 E6        30.03F
6HR MIN TEMP:  72; 6HR MAX TEMP:  82; 6HR PCP: TRACE;

NEBRASKA CITY  CLOUDY    73  73 100 SE5       30.04F
PLATTSMOUTH    CLOUDY    74  70  85 E3        30.04F
$$

NEZ044-045-051>053-067-280100-
OMAHA AREA

CITY           SKY/WX    TMP DP  RH WIND       PRES   REMARKS
OMAHA EPPLEY   CLOUDY    73  68  84 E8        30.05F
6HR MIN TEMP:  70; 6HR MAX TEMP:  75; 6HR PCP:  0.34;

BLAIR          CLOUDY    73  69  88 E9        30.06S
FREMONT        CLOUDY    74  69  84 E9        30.05F
MILLARD        CLOUDY    75  69  82 E3        30.03F
OFFUTT AFB     CLOUDY    74  74  99 E7        30.04F
PLATTSMOUTH    CLOUDY    74  70  85 E3        30.04F
WAHOO          MOCLDY    74  68  81 E7        30.04F HAZE
$$


USA.gov is the U.S. government's official web portal to all federal, state and local government web resources and services.